[[{"header":{"parameterUnit":"m.s-1","parameterCategory":1,"la1":30.2991,"la2":30.254,"lo1":-89.0895,"lo2":-89.0444,"dy":0.0017,"dx":0.0017,"nx":28,"ny":28,"refTime":"2024-07-11T21:00:00:Z","depth":0,"parameterNumber":2,"parameterNumberName":"U-component_of_WINDS"},"data":[0,0,0,0,0,0,0,0,0,0,0,0,0,0,0,0,0,0,0,0,0,0,0,0,0,0,0,0,0,0,0,0,0,0,0,0,0,0,0,0,0,0,0,0,0,0,0,0,0,0,0,0,0,0,0,0,0,0,3.4206,3.4207,0,3.432,3.4322,3.4323,3.4275,3.4272,3.4269,3.4266,3.4384,3.4389,3.4395,0,0,0,0,0,0,0,0,0,0,0,0,0,3.3944,3.3949,3.4206,3.4207,3.4209,3.432,3.4322,3.4323,3.4275,3.4272,3.4268,3.4265,3.4382,3.4388,3.4395,0,0,0,0,0,0,0,0,0,0,0,0,0,3.4058,3.3951,3.4206,3.4198,3.4199,3.432,3.4322,3.4324,3.4276,3.4272,3.4267,3.4264,3.4379,3.4388,3.4396,3.4532,0,0,3.4422,3.4426,0,0,0,0,0,0,0,0,3.4052,3.4068,3.4198,3.4199,3.42,3.4279,3.4272,3.4394,3.4277,3.4246,3.4266,3.4262,3.4352,3.4363,3.4393,3.4537,3.4542,3.4423,3.4428,3.4432,3.4434,0,0,0,0,0,0,0,3.4044,3.4062,3.4251,3.42,3.4201,3.4188,3.42,3.4295,3.4321,3.4249,3.4246,3.426,3.4352,3.4385,3.4396,3.4544,3.4423,3.443,3.4436,3.4439,3.4802,3.4807,0,0,0,0,0,0,3.4036,3.4056,3.4248,3.4255,3.4114,3.4197,3.421,3.4258,3.432,3.4325,3.4263,3.4257,3.4373,3.4386,3.44,3.456,3.4432,3.444,3.4445,3.4798,3.4803,3.4808,0,0,0,0,0,0,3.403,3.4053,3.4243,3.4155,3.4178,3.4205,3.426,3.4262,3.4295,3.4331,3.4335,3.4292,3.437,3.4388,3.4499,3.4564,3.4444,3.4451,3.4793,3.48,3.4806,3.4884,0,0,0,0,0,0,3.4023,3.4052,3.4104,3.4156,3.4183,3.4341,3.4264,3.4267,3.431,3.4303,3.4359,3.4365,3.4368,3.4486,3.4507,3.4573,3.4458,3.4787,3.4796,3.4804,3.4876,3.4893,3.4908,0,0,0,0,0,3.4014,3.4122,3.4107,3.413,3.4249,3.4345,3.436,3.4361,3.4316,3.4368,3.439,3.4363,3.4554,3.4498,3.4521,3.4591,3.4783,3.4793,3.4803,3.4869,3.489,3.4907,0,0,0,0,0,0,3.4077,3.4129,3.4112,3.4241,3.4289,3.4336,3.4402,3.4384,3.4445,3.4436,3.4435,3.4449,3.4563,3.4588,3.4525,3.4724,3.4661,3.4676,3.4703,3.4723,3.4739,3.4729,3.4465,0,0,0,0,0,3.4106,3.418,3.4221,3.433,3.4355,3.4375,3.4417,3.4414,3.4463,3.4483,3.4514,3.4563,3.4633,3.468,3.4747,3.488,3.489,3.4939,3.4955,3.4968,3.498,3.505,3.5072,3.4842,3.4842,3.4842,0,0,3.4166,3.4204,3.4251,3.4344,3.4381,3.4456,3.4392,3.4476,3.4531,3.4496,3.4602,3.4626,3.4681,3.4803,3.4858,3.4827,3.5046,3.4981,3.4991,3.4997,3.5063,3.5085,3.5104,3.4849,3.4848,3.4846,0,0,3.4314,3.4351,3.4445,3.4483,3.4539,3.4551,3.4574,3.4624,3.4639,3.4746,3.472,3.4786,3.4909,3.4948,3.4984,3.5145,3.5122,3.5167,3.5249,3.5317,3.5335,3.5351,3.5407,3.5427,3.518,3.5181,3.5181,0,3.4382,3.4496,3.4496,3.4581,3.4622,3.4593,3.4687,3.4724,3.4799,3.4828,3.4793,3.4944,3.4979,3.5108,3.5148,3.5179,3.5203,3.516,3.5333,3.5349,3.5364,3.5416,3.5438,3.5186,3.5185,3.5184,3.5184,0,3.4575,3.4654,3.4723,3.4796,3.4845,3.4935,3.4947,3.4997,3.4989,3.5005,3.5113,3.5153,3.5227,3.5258,3.5252,3.5387,3.5365,3.5332,3.5268,3.539,3.544,3.5461,3.5193,3.5191,3.5189,3.5188,0,0,3.4767,3.4837,3.4862,3.4894,3.4953,3.5014,3.5102,3.5174,3.5215,3.5268,3.534,3.5444,3.5412,3.5453,3.5451,3.5511,3.5634,3.547,3.5471,3.5497,3.5782,3.5806,3.5829,3.5619,3.5623,3.5626,3.5777,0,3.4918,3.5071,3.5072,3.5213,3.5285,3.5258,3.5334,3.5378,3.5395,3.5458,3.5476,3.5549,3.5503,3.5527,3.5585,3.5607,3.5691,3.5596,3.5685,3.5688,3.567,3.5856,3.5881,3.6021,3.5796,3.58,3.5802,0,3.5114,3.5173,3.532,3.5367,3.5397,3.5466,3.553,3.5592,3.5641,3.5648,3.5694,3.5682,3.577,3.5705,3.5825,3.576,3.5797,3.5813,3.5818,3.5825,3.5751,3.5866,3.6066,3.6087,3.5833,3.5831,3.5828,0,3.5236,3.5352,3.5454,3.5483,3.5541,3.5589,3.5615,3.566,3.5703,3.576,3.5787,3.5854,3.589,3.5941,3.5948,3.59,3.6068,3.6004,3.6075,3.6075,3.6111,3.6108,3.6318,3.6138,3.6138,3.6137,3.6137,0,3.5404,3.5495,3.551,3.5573,3.5673,3.5674,3.5773,3.5795,3.5835,3.5901,3.5883,3.5945,3.595,3.6014,3.602,3.6117,3.6135,3.6142,3.6142,3.6143,3.6142,3.6165,3.6155,3.6143,3.6142,3.614,3.614,0,3.5557,3.5571,3.568,3.5726,3.5739,3.5811,3.585,3.5909,3.5924,3.6007,3.6027,3.605,3.6124,3.6136,3.6223,3.6227,3.6343,3.6334,3.6326,3.6324,3.6394,3.6387,3.6626,3.6656,3.6458,3.646,3.6461,0,3.5662,3.5731,3.5783,3.5826,3.5855,3.5924,3.5967,3.597,3.6015,3.6075,3.6127,3.62,3.6257,3.6376,3.6401,3.6467,3.6458,3.6537,3.6468,3.6465,3.6456,3.6451,3.6457,3.655,3.6552,3.6554,3.6555,0,3.5846,3.5849,3.5912,3.5977,3.6028,3.6079,3.6128,3.6164,3.6173,3.6225,3.63,3.6345,3.6433,3.6504,3.6569,3.6596,3.6577,3.6577,3.6597,3.6597,3.6589,3.6592,3.636,3.6571,3.657,3.6568,3.6568,3.6567,3.5977,3.6036,3.6082,3.6151,3.6188,3.6233,3.6291,3.6312,3.6375,3.6446,3.6445,3.6527,3.6572,3.6658,3.6689,3.6752,3.6726,3.6756,3.6763,3.6769,3.6775,3.658,3.6764,3.6764,3.6764,3.6763,3.6763,0,3.6158,3.6186,3.625,3.6318,3.6372,3.635,3.6402,3.6449,3.6521,3.6565,3.6622,3.6707,3.6776,3.6805,3.6872,3.6917,3.691,3.6934,3.693,3.6936,3.6795,3.677,3.6939,3.6939,3.6939,3.6938,3.6938,3.6938,3.6259,3.6357,3.6365,3.6481,3.6508,3.6588,3.6619,3.666,3.6695,3.6791,3.6847,3.6866,3.6903,3.6973,3.7034,3.7041,3.7065,3.7093,3.7096,3.6964,3.6946,3.6929,3.6905,3.7099,3.7099,3.7231,3.7232,3.7233]},{"header":{"parameterUnit":"m.s-1","parameterCategory":1,"la1":30.2991,"la2":30.254,"lo1":-89.0895,"lo2":-89.0444,"dy":0.0017,"dx":0.0017,"nx":28,"ny":28,"refTime":"2024-07-11T21:00:00:Z","depth":0,"parameterNumber":3,"parameterNumberName":"V-component_of_WINDS"},"data":[0,0,0,0,0,0,0,0,0,0,0,0,0,0,0,0,0,0,0,0,0,0,0,0,0,0,0,0,0,0,0,0,0,0,0,0,0,0,0,0,0,0,0,0,0,0,0,0,0,0,0,0,0,0,0,0,0,0,0.6117,0.6117,0,0.609,0.6089,0.6089,0.6053,0.6052,0.6051,0.6051,0.6023,0.6023,0.6023,0,0,0,0,0,0,0,0,0,0,0,0,0,0.6137,0.6137,0.6117,0.6117,0.6117,0.609,0.6089,0.6089,0.6053,0.6052,0.6051,0.605,0.6023,0.6023,0.6023,0,0,0,0,0,0,0,0,0,0,0,0,0,0.6121,0.6137,0.6117,0.6095,0.6093,0.609,0.6089,0.6089,0.6053,0.6052,0.6051,0.605,0.6023,0.6023,0.6023,0.6039,0,0,0.6022,0.6022,0,0,0,0,0,0,0,0,0.6122,0.612,0.6099,0.6097,0.6094,0.6074,0.6086,0.6072,0.6053,0.6068,0.6051,0.605,0.6041,0.6039,0.6036,0.6038,0.6037,0.6022,0.6022,0.6021,0.6021,0,0,0,0,0,0,0,0.6123,0.6121,0.6106,0.6098,0.6096,0.6086,0.6083,0.6083,0.606,0.6067,0.6064,0.6061,0.6039,0.6036,0.6035,0.6036,0.6022,0.6022,0.6021,0.6021,0.6049,0.605,0,0,0,0,0,0,0.6128,0.6122,0.6107,0.6106,0.6106,0.6087,0.6083,0.6081,0.606,0.6056,0.6062,0.606,0.6037,0.6035,0.6034,0.6051,0.6021,0.6021,0.6021,0.6048,0.6049,0.605,0,0,0,0,0,0,0.6128,0.6127,0.6108,0.6113,0.611,0.6087,0.6086,0.6081,0.6078,0.6056,0.6052,0.6063,0.6036,0.6034,0.6038,0.6049,0.6021,0.6021,0.6047,0.6048,0.605,0.6086,0,0,0,0,0,0,0.6129,0.6127,0.6134,0.6114,0.611,0.6113,0.6086,0.6081,0.6078,0.6074,0.6056,0.6052,0.6035,0.6038,0.6037,0.6048,0.6021,0.6046,0.6048,0.6049,0.6084,0.6088,0.6092,0,0,0,0,0,0.613,0.6145,0.6134,0.6132,0.6118,0.6114,0.6112,0.6092,0.6079,0.6085,0.607,0.6053,0.6048,0.6039,0.6038,0.6049,0.6045,0.6047,0.6049,0.6082,0.6087,0.6092,0,0,0,0,0,0,0.6168,0.6142,0.613,0.6139,0.6129,0.6108,0.6115,0.6099,0.6093,0.609,0.6065,0.6061,0.6068,0.6059,0.6049,0.6063,0.6044,0.6046,0.6069,0.6074,0.6079,0.6081,0.602,0,0,0,0,0,0.6177,0.6176,0.6154,0.6165,0.616,0.6138,0.6136,0.6122,0.611,0.6106,0.6092,0.6081,0.6077,0.6075,0.607,0.6082,0.6077,0.6089,0.6093,0.6097,0.6099,0.6103,0.6107,0.6057,0.6057,0.6057,0,0,0.6196,0.6182,0.6184,0.6172,0.6162,0.6162,0.6135,0.6136,0.6135,0.6106,0.6108,0.6098,0.6084,0.6091,0.6094,0.6084,0.6111,0.6099,0.6102,0.6102,0.6105,0.611,0.6114,0.6058,0.6058,0.6058,0,0,0.6232,0.6221,0.6228,0.6219,0.6204,0.619,0.6191,0.6172,0.6164,0.6166,0.6143,0.6142,0.6136,0.6127,0.6121,0.6151,0.6134,0.615,0.6173,0.6178,0.6181,0.6185,0.6195,0.6199,0.6152,0.6152,0.6152,0,0.6258,0.6256,0.6234,0.6236,0.6231,0.6203,0.621,0.6202,0.6187,0.6184,0.6173,0.6163,0.6152,0.6156,0.6164,0.616,0.6161,0.6152,0.6183,0.6186,0.6189,0.6198,0.6202,0.6154,0.6154,0.6154,0.6154,0,0.6289,0.6288,0.6295,0.628,0.6276,0.6281,0.6258,0.6257,0.6242,0.6228,0.623,0.6215,0.6207,0.6206,0.6192,0.6208,0.6202,0.6187,0.6168,0.6196,0.6204,0.6208,0.6157,0.6156,0.6156,0.6155,0,0,0.6348,0.632,0.6323,0.6315,0.6297,0.6295,0.6298,0.6289,0.6287,0.6277,0.6278,0.6273,0.6258,0.6252,0.6237,0.6241,0.6264,0.6225,0.6224,0.6232,0.6279,0.6291,0.6295,0.6252,0.6253,0.6253,0.628,0,0.6379,0.6382,0.6361,0.637,0.6368,0.6341,0.6343,0.6331,0.6318,0.6314,0.63,0.6296,0.6278,0.6273,0.6276,0.6261,0.6273,0.6258,0.6253,0.6253,0.6257,0.6299,0.6312,0.6338,0.6283,0.6284,0.6284,0,0.6417,0.6408,0.6416,0.6395,0.6394,0.6396,0.6385,0.6382,0.6368,0.6358,0.6351,0.6332,0.6332,0.6314,0.6313,0.6303,0.63,0.6292,0.6292,0.6291,0.627,0.6299,0.6346,0.635,0.6289,0.6289,0.6288,0,0.6459,0.6449,0.6452,0.6446,0.6423,0.6425,0.6415,0.64,0.6395,0.6386,0.6382,0.6373,0.6368,0.6361,0.634,0.6329,0.6342,0.6321,0.6333,0.6334,0.6337,0.6337,0.6384,0.6335,0.6335,0.6335,0.6335,0,0.6496,0.6501,0.647,0.6472,0.6477,0.6453,0.6459,0.6446,0.6433,0.6431,0.6407,0.6406,0.6379,0.6375,0.6359,0.636,0.6358,0.635,0.6345,0.6352,0.6353,0.6349,0.6347,0.6336,0.6336,0.6336,0.6336,0,0.6544,0.6523,0.6524,0.6501,0.6496,0.65,0.648,0.6481,0.6466,0.6464,0.6462,0.6438,0.6432,0.641,0.6399,0.6388,0.6394,0.6386,0.6399,0.6396,0.6409,0.6408,0.6454,0.6459,0.6408,0.6409,0.6409,0,0.6569,0.6572,0.6549,0.6546,0.6538,0.6534,0.6528,0.6504,0.65,0.6483,0.6485,0.6477,0.6469,0.646,0.6441,0.6432,0.6423,0.644,0.6421,0.6427,0.6422,0.6422,0.6422,0.6444,0.6445,0.6445,0.6446,0,0.6615,0.6604,0.6598,0.6588,0.6582,0.6573,0.6562,0.6561,0.6534,0.653,0.6523,0.6517,0.6504,0.6496,0.6483,0.6472,0.6454,0.6451,0.6453,0.646,0.6467,0.6463,0.641,0.6451,0.645,0.645,0.6449,0.6449,0.6652,0.6653,0.6637,0.663,0.6619,0.661,0.6609,0.6593,0.6586,0.6574,0.656,0.6555,0.6539,0.652,0.651,0.6505,0.6495,0.6499,0.65,0.6501,0.6503,0.6468,0.6503,0.6503,0.6503,0.6502,0.6502,0,0.6697,0.6684,0.6678,0.6664,0.6658,0.6641,0.6628,0.6624,0.662,0.6606,0.6599,0.659,0.6581,0.6562,0.6551,0.655,0.6542,0.6548,0.6548,0.6546,0.6513,0.6512,0.6556,0.6556,0.6556,0.6556,0.6556,0.6556,0.6719,0.672,0.6708,0.6703,0.669,0.6685,0.6678,0.6669,0.6658,0.6649,0.6642,0.6629,0.6612,0.66,0.6591,0.6585,0.6582,0.6592,0.6583,0.6553,0.6548,0.6543,0.6542,0.6591,0.6592,0.6616,0.6617,0.6617]}]]